| time (UTC) | temp F | wind direction | speed MPH | gust MPH | rain 1hr in | rain 24hr in | rain mn in | humidity % | barometer mb |
| 20260504140750 | 66 | 234 | 1.0 | 4.0 | 0.00 | 0.00 | 0.00 | 51 | 1019.3 |
| 20260504140502 | 65 | 281 | 2.0 | 5.0 | 0.00 | 0.00 | 0.00 | 50 | 1019.4 |
| 20260504130637 | 55 | 232 | 1.0 | 4.0 | 0.00 | 0.00 | 0.00 | 73 | 1019.5 |
| 20260504130624 | 53 | 176 | 1.0 | 3.0 | 0.00 | 0.00 | 0.00 | 73 | 1019.3 |
| 20260504100516 | 39 | 27 | 0.0 | 0.0 | 0.00 | 0.00 | 0.00 | 91 | 1018.8 |
| 20260504081903 | 42 | 28 | 0.0 | 1.0 | 0.00 | 0.00 | 0.00 | 85 | 1019.0 |
| 20260504081357 | 42 | 28 | 1.0 | 3.0 | 0.00 | 0.00 | 0.00 | 85 | 1019.0 |
| 20260504081113 | 42 | 28 | 1.0 | 3.0 | 0.00 | 0.00 | 0.00 | 85 | 1019.0 |
| 20260504080615 | 42 | 357 | 0.0 | 2.0 | 0.00 | 0.00 | 0.00 | 84 | 1019.0 |
| 20260504070233 | 49 | 256 | 0.0 | 1.0 | 0.00 | 0.00 | 0.00 | 68 | 1019.0 |
| 20260504060120 | 51 | 281 | 0.0 | 2.0 | 0.00 | 0.00 | 0.00 | 64 | 1018.9 |
| 20260504050515 | 53 | 211 | 0.0 | 2.0 | 0.00 | 0.00 | 0.00 | 58 | 1019.3 |
| 20260504050009 | 53 | 210 | 0.0 | 2.0 | 0.00 | 0.00 | 0.00 | 58 | 1019.3 |
| 20260504045503 | 53 | 227 | 0.0 | 0.0 | 0.00 | 0.00 | 0.00 | 58 | 1019.2 |
| 20260504044957 | 53 | 227 | 0.0 | 1.0 | 0.00 | 0.00 | 0.00 | 59 | 1019.3 |
| 20260504044949 | 53 | 227 | 0.0 | 2.0 | 0.00 | 0.00 | 0.00 | 57 | 1019.3 |
| 20260504044205 | 53 | 220 | 0.0 | 2.0 | 0.00 | 0.00 | 0.00 | 57 | 1019.3 |
| 20260504043705 | 53 | 134 | 0.0 | 1.0 | 0.00 | 0.00 | 0.00 | 58 | 1019.3 |
| 20260504042933 | 53 | 257 | 0.0 | 1.0 | 0.00 | 0.00 | 0.00 | 57 | 1019.3 |
| 20260504042427 | 53 | 253 | 0.0 | 1.0 | 0.00 | 0.00 | 0.00 | 57 | 1019.2 |
| 20260504042141 | 53 | 261 | 0.0 | 1.0 | 0.00 | 0.00 | 0.00 | 56 | 1019.1 |
| 20260504041415 | 54 | 261 | 0.0 | 1.0 | 0.00 | 0.00 | 0.00 | 57 | 1019.2 |
| 20260504040909 | 54 | 261 | 0.0 | 1.0 | 0.00 | 0.00 | 0.00 | 54 | 1019.1 |
| 20260504040402 | 54 | 263 | 0.0 | 1.0 | 0.00 | 0.00 | 0.00 | 54 | 1019.1 |
| 20260504035858 | 55 | 228 | 1.0 | 3.0 | 0.00 | 0.00 | 0.00 | 54 | 1019.1 |
| 20260504035622 | 55 | 221 | 1.0 | 3.0 | 0.00 | 0.00 | 0.00 | 54 | 1019.0 |
| 20260504035321 | 54 | 229 | 0.0 | 3.0 | 0.00 | 0.00 | 0.00 | 55 | 1019.1 |
| 20260504034340 | 54 | 208 | 0.0 | 2.0 | 0.00 | 0.00 | 0.00 | 54 | 1019.1 |
| 20260504033834 | 54 | 207 | 0.0 | 2.0 | 0.00 | 0.00 | 0.00 | 55 | 1019.2 |
| 20260504033328 | 53 | 262 | 0.0 | 1.0 | 0.00 | 0.00 | 0.00 | 56 | 1019.2 |
| 20260504032822 | 53 | 265 | 0.0 | 1.0 | 0.00 | 0.00 | 0.00 | 55 | 1019.1 |
| 20260504032316 | 53 | 212 | 0.0 | 1.0 | 0.00 | 0.00 | 0.00 | 55 | 1019.1 |
| 20260504031810 | 53 | 212 | 0.0 | 1.0 | 0.00 | 0.00 | 0.00 | 54 | 1019.2 |
| 20260504031305 | 54 | 212 | 0.0 | 1.0 | 0.00 | 0.00 | 0.00 | 54 | 1019.3 |
| 20260504030758 | 54 | 212 | 0.0 | 1.0 | 0.00 | 0.00 | 0.00 | 54 | 1019.3 |
| 20260504030258 | 54 | 212 | 0.0 | 2.0 | 0.00 | 0.00 | 0.00 | 53 | 1019.1 |
| 20260504025759 | 54 | 213 | 1.0 | 2.0 | 0.00 | 0.00 | 0.00 | 53 | 1019.1 |
| 20260504025024 | 54 | 220 | 1.0 | 3.0 | 0.00 | 0.00 | 0.00 | 54 | 1019.1 |
| 20260504023252 | 52 | 224 | 0.0 | 1.0 | 0.00 | 0.00 | 0.00 | 57 | 1019.2 |
| 20260504022752 | 51 | 218 | 0.0 | 1.0 | 0.00 | 0.00 | 0.00 | 59 | 1019.2 |
| 20260504022251 | 52 | 219 | 0.0 | 0.0 | 0.00 | 0.00 | 0.00 | 58 | 1019.2 |
| 20260504021751 | 52 | 219 | 0.0 | 0.0 | 0.00 | 0.00 | 0.00 | 58 | 1019.2 |
| 20260504021252 | 52 | 218 | 0.0 | 0.0 | 0.00 | 0.00 | 0.00 | 57 | 1019.1 |
| 20260504020750 | 52 | 218 | 0.0 | 0.0 | 0.00 | 0.00 | 0.00 | 56 | 1019.0 |
| 20260504020509 | 52 | 218 | 0.0 | 0.0 | 0.00 | 0.00 | 0.00 | 57 | 1019.1 |
| 20260504015749 | 53 | 218 | 0.0 | 1.0 | 0.00 | 0.00 | 0.00 | 56 | 1018.9 |
| 20260504015247 | 53 | 218 | 0.0 | 1.0 | 0.00 | 0.00 | 0.00 | 56 | 1018.8 |
| 20260504014745 | 53 | 219 | 0.0 | 1.0 | 0.00 | 0.00 | 0.00 | 56 | 1018.8 |
| 20260504014244 | 53 | 218 | 0.0 | 0.0 | 0.00 | 0.00 | 0.00 | 56 | 1018.7 |
| 20260504014012 | 53 | 218 | 0.0 | 0.0 | 0.00 | 0.00 | 0.00 | 55 | 1018.5 |
| 20260504013240 | 53 | 218 | 0.0 | 0.0 | 0.00 | 0.00 | 0.00 | 56 | 1018.5 |
| 20260504012733 | 54 | 218 | 0.0 | 0.0 | 0.00 | 0.00 | 0.00 | 55 | 1018.5 |
| 20260504012228 | 54 | 218 | 0.0 | 0.0 | 0.00 | 0.00 | 0.00 | 54 | 1018.5 |
| 20260504011722 | 54 | 218 | 0.0 | 1.0 | 0.00 | 0.00 | 0.00 | 53 | 1018.4 |
| 20260504011440 | 55 | 218 | 0.0 | 1.0 | 0.00 | 0.00 | 0.00 | 53 | 1018.5 |
| 20260504010709 | 55 | 218 | 0.0 | 1.0 | 0.00 | 0.00 | 0.00 | 52 | 1018.4 |
| 20260504010203 | 55 | 218 | 0.0 | 0.0 | 0.00 | 0.00 | 0.00 | 51 | 1018.4 |
| 20260504005850 | 56 | 218 | 0.0 | 1.0 | 0.00 | 0.00 | 0.00 | 51 | 1018.4 |
| 20260504005741 | 55 | 218 | 0.0 | 1.0 | 0.00 | 0.00 | 0.00 | 51 | 1018.4 |
| 20260504004644 | 56 | 218 | 0.0 | 1.0 | 0.00 | 0.00 | 0.00 | 50 | 1018.3 |
| 20260504004137 | 56 | 218 | 1.0 | 1.0 | 0.00 | 0.00 | 0.00 | 51 | 1018.3 |
| 20260504003632 | 56 | 208 | 0.0 | 2.0 | 0.00 | 0.00 | 0.00 | 50 | 1018.2 |
| 20260504003126 | 56 | 216 | 0.0 | 2.0 | 0.00 | 0.00 | 0.00 | 49 | 1018.2 |
| 20260504002626 | 57 | 219 | 0.0 | 1.0 | 0.00 | 0.00 | 0.00 | 49 | 1018.2 |
| 20260504002122 | 58 | 219 | 0.0 | 1.0 | 0.00 | 0.00 | 0.00 | 48 | 1018.1 |
| 20260504001624 | 58 | 226 | 0.0 | 1.0 | 0.00 | 0.00 | 0.00 | 47 | 1018.1 |
| 20260504001124 | 58 | 243 | 0.0 | 1.0 | 0.00 | 0.00 | 0.00 | 46 | 1017.9 |
| 20260503235121 | 60 | 198 | 1.0 | 3.0 | 0.00 | 0.00 | 0.00 | 42 | 1017.9 |
| 20260503234622 | 61 | 223 | 1.0 | 3.0 | 0.00 | 0.00 | 0.00 | 41 | 1018.1 |
| 20260503234342 | 61 | 214 | 1.0 | 3.0 | 0.00 | 0.00 | 0.00 | 39 | 1018.0 |
| 20260503233621 | 62 | 210 | 1.0 | 4.0 | 0.00 | 0.00 | 0.00 | 39 | 1018.0 |
| 20260503233121 | 62 | 217 | 1.0 | 4.0 | 0.00 | 0.00 | 0.00 | 38 | 1018.0 |
| 20260503232622 | 62 | 216 | 2.0 | 4.0 | 0.00 | 0.00 | 0.00 | 37 | 1018.1 |
| 20260503232120 | 63 | 185 | 2.0 | 4.0 | 0.00 | 0.00 | 0.00 | 36 | 1018.1 |
| 20260503231848 | 63 | 147 | 3.0 | 7.0 | 0.00 | 0.00 | 0.00 | 36 | 1018.1 |
| 20260503231121 | 63 | 214 | 3.0 | 7.0 | 0.00 | 0.00 | 0.00 | 35 | 1018.0 |
| 20260503230622 | 64 | 161 | 2.0 | 5.0 | 0.00 | 0.00 | 0.00 | 34 | 1018.1 |
| 20260503230121 | 64 | 179 | 1.0 | 5.0 | 0.00 | 0.00 | 0.00 | 34 | 1018.0 |
| 20260503225620 | 65 | 203 | 1.0 | 5.0 | 0.00 | 0.00 | 0.00 | 35 | 1017.8 |
| 20260503225342 | 66 | 167 | 1.0 | 3.0 | 0.00 | 0.00 | 0.00 | 34 | 1017.9 |
| 20260503224621 | 66 | 274 | 1.0 | 5.0 | 0.00 | 0.00 | 0.00 | 30 | 1017.9 |
| 20260503224120 | 67 | 278 | 1.0 | 5.0 | 0.00 | 0.00 | 0.00 | 30 | 1017.9 |
| 20260503223841 | 68 | 223 | 1.0 | 6.0 | 0.00 | 0.00 | 0.00 | 30 | 1017.9 |
| 20260503223120 | 68 | 269 | 1.0 | 6.0 | 0.00 | 0.00 | 0.00 | 30 | 1017.9 |
| 20260503222620 | 68 | 309 | 2.0 | 7.0 | 0.00 | 0.00 | 0.00 | 31 | 1017.9 |
| 20260503222118 | 68 | 222 | 2.0 | 7.0 | 0.00 | 0.00 | 0.00 | 30 | 1017.9 |
| 20260503221619 | 68 | 203 | 2.0 | 5.0 | 0.00 | 0.00 | 0.00 | 31 | 1018.1 |
| 20260503221118 | 68 | 216 | 2.0 | 7.0 | 0.00 | 0.00 | 0.00 | 30 | 1018.2 |
| 20260503220840 | 69 | 231 | 1.0 | 7.0 | 0.00 | 0.00 | 0.00 | 30 | 1018.2 |
| 20260503215618 | 67 | 223 | 4.0 | 10.0 | 0.00 | 0.00 | 0.00 | 30 | 1018.5 |
| 20260503215114 | 67 | 202 | 3.0 | 10.0 | 0.00 | 0.00 | 0.00 | 31 | 1018.4 |
| 20260503214615 | 68 | 255 | 2.0 | 9.0 | 0.00 | 0.00 | 0.00 | 30 | 1018.5 |
| 20260503214114 | 68 | 348 | 3.0 | 9.0 | 0.00 | 0.00 | 0.00 | 31 | 1018.7 |
| 20260503213613 | 68 | 279 | 2.0 | 5.0 | 0.00 | 0.00 | 0.00 | 31 | 1018.7 |
| 20260503213112 | 67 | 172 | 2.0 | 7.0 | 0.00 | 0.00 | 0.00 | 31 | 1018.6 |
| 20260503212614 | 67 | 307 | 3.0 | 10.0 | 0.00 | 0.00 | 0.00 | 32 | 1018.8 |
| 20260503212112 | 67 | 214 | 4.0 | 10.0 | 0.00 | 0.00 | 0.00 | 32 | 1018.8 |
| 20260503211616 | 67 | 173 | 2.0 | 9.0 | 0.00 | 0.00 | 0.00 | 32 | 1018.7 |
| 20260503211114 | 68 | 218 | 2.0 | 7.0 | 0.00 | 0.00 | 0.00 | 31 | 1018.8 |
| 20260503210838 | 67 | 127 | 3.0 | 8.0 | 0.00 | 0.00 | 0.00 | 31 | 1018.9 |
| 20260503210114 | 68 | 266 | 2.0 | 8.0 | 0.00 | 0.00 | 0.00 | 29 | 1018.8 |
| 20260503205612 | 68 | 141 | 2.0 | 6.0 | 0.00 | 0.00 | 0.00 | 31 | 1018.7 |
| 20260503205334 | 67 | 203 | 3.0 | 9.0 | 0.00 | 0.00 | 0.00 | 31 | 1018.7 |
| 20260503204612 | 67 | 200 | 4.0 | 10.0 | 0.00 | 0.00 | 0.00 | 31 | 1018.8 |
| 20260503204345 | 67 | 245 | 3.0 | 10.0 | 0.00 | 0.00 | 0.00 | 31 | 1018.8 |
| 20260503203839 | 67 | 234 | 3.0 | 8.0 | 0.00 | 0.00 | 0.00 | 30 | 1018.8 |
| 20260503203112 | 67 | 188 | 2.0 | 8.0 | 0.00 | 0.00 | 0.00 | 31 | 1018.9 |
| 20260503202614 | 67 | 260 | 3.0 | 8.0 | 0.00 | 0.00 | 0.00 | 29 | 1019.0 |
| 20260503202113 | 66 | 275 | 3.0 | 9.0 | 0.00 | 0.00 | 0.00 | 29 | 1019.0 |
| 20260503201611 | 66 | 249 | 3.0 | 9.0 | 0.00 | 0.00 | 0.00 | 31 | 1019.1 |
| 20260503201554 | 66 | 287 | 2.0 | 7.0 | 0.00 | 0.00 | 0.00 | 29 | 1019.2 |
| 20260503200608 | 66 | 260 | 2.0 | 7.0 | 0.00 | 0.00 | 0.00 | 28 | 1019.4 |
| 20260503200108 | 67 | 283 | 2.0 | 6.0 | 0.00 | 0.00 | 0.00 | 30 | 1019.4 |
| 20260503195608 | 66 | 207 | 2.0 | 6.0 | 0.00 | 0.00 | 0.00 | 30 | 1019.5 |
| 20260503195107 | 66 | 234 | 2.0 | 5.0 | 0.00 | 0.00 | 0.00 | 32 | 1019.6 |
| 20260503194607 | 66 | 123 | 2.0 | 5.0 | 0.00 | 0.00 | 0.00 | 30 | 1019.5 |
| 20260503194328 | 66 | 231 | 3.0 | 8.0 | 0.00 | 0.00 | 0.00 | 31 | 1019.6 |
| 20260503193604 | 66 | 343 | 3.0 | 8.0 | 0.00 | 0.00 | 0.00 | 33 | 1019.5 |
| 20260503193104 | 65 | 207 | 3.0 | 8.0 | 0.00 | 0.00 | 0.00 | 32 | 1019.6 |
| 20260503192609 | 65 | 173 | 3.0 | 8.0 | 0.00 | 0.00 | 0.00 | 33 | 1019.5 |
| 20260503192105 | 65 | 262 | 3.0 | 8.0 | 0.00 | 0.00 | 0.00 | 32 | 1019.8 |
| 20260503191604 | 65 | 50 | 2.0 | 8.0 | 0.00 | 0.00 | 0.00 | 33 | 1019.7 |
| 20260503191104 | 65 | 280 | 2.0 | 7.0 | 0.00 | 0.00 | 0.00 | 31 | 1019.8 |
| 20260503190604 | 65 | 150 | 2.0 | 8.0 | 0.00 | 0.00 | 0.00 | 32 | 1019.8 |
| 20260503190328 | 65 | 110 | 2.0 | 8.0 | 0.00 | 0.00 | 0.00 | 30 | 1019.9 |
| 20260503185605 | 65 | 277 | 2.0 | 8.0 | 0.00 | 0.00 | 0.00 | 31 | 1020.0 |
| 20260503185059 | 65 | 65 | 2.0 | 7.0 | 0.00 | 0.00 | 0.00 | 34 | 1020.0 |
| 20260503184818 | 64 | 81 | 2.0 | 7.0 | 0.00 | 0.00 | 0.00 | 32 | 1020.1 |
| 20260503184047 | 65 | 35 | 3.0 | 10.0 | 0.00 | 0.00 | 0.00 | 31 | 1020.2 |
| 20260503183803 | 64 | 278 | 5.0 | 13.0 | 0.00 | 0.00 | 0.00 | 33 | 1020.3 |
| 20260503183034 | 64 | 193 | 4.0 | 13.0 | 0.00 | 0.00 | 0.00 | 32 | 1020.3 |
| 20260503182528 | 63 | 129 | 3.0 | 9.0 | 0.00 | 0.00 | 0.00 | 33 | 1020.4 |
| 20260503182023 | 63 | 269 | 3.0 | 10.0 | 0.00 | 0.00 | 0.00 | 33 | 1020.6 |
| 20260503182011 | 63 | 148 | 3.0 | 10.0 | 0.00 | 0.00 | 0.00 | 35 | 1020.7 |
| 20260503181011 | 63 | 213 | 2.0 | 8.0 | 0.00 | 0.00 | 0.00 | 33 | 1020.8 |
| 20260503180504 | 63 | 218 | 2.0 | 8.0 | 0.00 | 0.00 | 0.00 | 33 | 1020.8 |
| 20260503175959 | 63 | 337 | 2.0 | 7.0 | 0.00 | 0.00 | 0.00 | 32 | 1021.0 |
| 20260503175942 | 63 | 51 | 2.0 | 7.0 | 0.00 | 0.00 | 0.00 | 33 | 1021.1 |
| 20260503174947 | 62 | 269 | 2.0 | 7.0 | 0.00 | 0.00 | 0.00 | 33 | 1021.1 |
| 20260503174705 | 62 | 214 | 2.0 | 7.0 | 0.00 | 0.00 | 0.00 | 35 | 1021.2 |
| 20260503173935 | 62 | 62 | 2.0 | 10.0 | 0.00 | 0.00 | 0.00 | 36 | 1021.2 |
| 20260503173429 | 61 | 91 | 3.0 | 10.0 | 0.00 | 0.00 | 0.00 | 35 | 1021.3 |
| 20260503173149 | 61 | 127 | 3.0 | 9.0 | 0.00 | 0.00 | 0.00 | 35 | 1021.2 |
| 20260503172420 | 61 | 279 | 2.0 | 8.0 | 0.00 | 0.00 | 0.00 | 34 | 1021.3 |
| 20260503171919 | 62 | 23 | 2.0 | 7.0 | 0.00 | 0.00 | 0.00 | 40 | 1021.2 |
| 20260503171420 | 60 | 6 | 2.0 | 7.0 | 0.00 | 0.00 | 0.00 | 41 | 1021.3 |
| 20260503170921 | 60 | 352 | 3.0 | 9.0 | 0.00 | 0.00 | 0.00 | 37 | 1021.3 |
| 20260503170645 | 60 | 332 | 3.0 | 9.0 | 0.00 | 0.00 | 0.00 | 34 | 1021.5 |
| 20260503150900 | 55 | 203 | 3.0 | 8.0 | 0.00 | 0.00 | 0.00 | 48 | 1022.6 |
| 20260503150359 | 55 | 198 | 3.0 | 10.0 | 0.00 | 0.00 | 0.00 | 45 | 1022.7 |